INTELSAT 16 (IS-16)

Last updated on Sat Dec 13 2025 00:02:47 GMT+0000 (Coordinated Universal Time)

1 36397U 10006A 25346.26119903 -.00000235 00000+0 00000+0 0 9995 2 36397 0.0090 331.8261 0002092 291.3327 195.8873 1.00272240 57789
UTC large
Height (km)
Speed (km/s)
/
Latitude / Longitude
Inclination (degrees)
Orbital Period (minutes)
Azimuth
Elevation
Range (km)
Doppler Factor

Next 0 passes for location: London (51.5072 / 0.1276)

Sorry there are no passes over London.